Palm Springs, CA

11:43 PM PDT on August 04, 2015 (GMT -0700)
Racquet Club Estates | | Change Station
CLOSE
Current Station
Personal Weather Station
Location: Palm Springs, CA
Elevation: 581 ft
Nearby Weather Stations
Active Advisory: Heat Advisory

Elev 581 ft 33.85 °N, 116.54 °W | Updated 1 minute ago

Clear
Clear
91.4 °F
Feels Like 88 °F
N
0.0
Wind Variable Wind from West

Today
High -- | Low -- °F
--% Chance of Precip.
Yesterday
High -- | Low -- °F
Precip. -- in
6:00 AM 7:44 PM
Waning Gibbous, 70% visible
Pressure 29.78 in
Visibility 10.0 miles
Clouds Clear
Heat Index 88 °F
Dew Point 47 °F
Humidity 22%
Rainfall 0.00 in
Snow Depth Not available.
UV 0 out of 12
Pollen 4.20 out of 12
Air Quality Not available.
Flu Activity Not available.
METAR KPSP 050553Z 28006KT 10SM CLR 37/05 A2980 RMK AO2 SLP084 T03670050 10456 20367 51017

More Conditions Fewer Conditions

Pressure 29.78 in
Visibility 10.0 miles
Clouds Clear
Heat Index 88 °F
Dew Point 47 °F
Humidity 22%
Rainfall 0.00 in
Snow Depth Not available.
UV 0 out of 12
Pollen 4.20 out of 12
Air Quality Not available.
Flu Activity Not available.
METAR KPSP 050553Z 28006KT 10SM CLR 37/05 A2980 RMK AO2 SLP084 T03670050 10456 20367 51017

More Conditions Fewer Conditions

10-Day Weather Forecast

×

Almanac

Astronomy

Aug. 04, 2015 Rise Set
Actual Time
Civil Twilight
Nautical Twilight
Astronomical Twilight
Moon
Length of Visible Light
Length of Day
Tomorrow will be .
, % of the Moon is Illuminated

Today's Extremes

State Highs State Lows

Community

WunderPhotos

Upload Photos

1,844,105 photos uploaded!

WunderBlogs® & News

Nearby

Air Quality

  Air Quality AQ Index Pollutant
Not available.

Snow Depth

Station Depth Elevation

Earthquake Activity

City Distance Mag. Time & Date
Minimum magnitude displayed is 2.5.

Coastal Water Temperatures

Place Temperature

Stations

Nearby Weather Stations

Station Location Temp. Windchill Dew Point Humidity Wind Precip. Elev Updated Type
                   
Heat Advisory
Statement as of 6:57 PM PDT on August 04, 2015

... Heat advisory now in effect until 8 PM PDT Wednesday...

* location... portions of the Coachella Valley.

* High temperatures... 112 to 117 degrees.

* Impacts... risk of heat related illness.

* Outlook... cooling for Thursday through Saturday.

Precautionary/preparedness actions...

Take extra precautions if you work or spend time outside. When
possible... reschedule strenuous activities to early morning or
evening. Know the signs and symptoms of heat exhaustion and heat
stroke. Wear light weight and loose fitting clothing when
possible and drink plenty of water.

To reduce risk during outdoor work the occupational safety and
health administration recommends scheduling frequent rest breaks
in shaded or air conditioned environments. Anyone overcome by
heat should be moved to a cool and shaded location. Heat stroke
is an emergency - call 911.



Jad